User: anonymous   Login
Location: Vale
(35.4830°N, 81.3830°W)
Time: 12:28:19
(UTC-04:00)
Language:

Oscar 11 - Orbit

View from above orbital plane
View from above orbital plane
View from above satellite
View from above satellite

Ground track
Ground track

The orbit data is extracted from the following two-line orbital elements,

1 14781U 84021B   16209.38879891  .00000123  00000-0  21552-4 0  9992
2 14781  97.7460 260.1554 0008647 173.4251 186.7078 14.82769964742216
Epoch (UTC): 27 July 2016 09:19:52
Eccentricity: 0.0008647
inclination: 97.7460°
perigee height: 614 km
apogee height: 626 km
right ascension of ascending node: 260.1554°
argument of perigee: 173.4251°
revolutions per day: 14.82769964
mean anomaly at epoch: 186.7078°
orbit number at epoch: 74221

The dashed part of the orbit path shows where the satellite is in the earth's shadow,  

DLR